When you browse on this site, cookies collect data to enhance your experience and personalize the content and advertising you see.
Visit our Privacy Policy to learn more. By continuing to use the site, you agree to this use of cookies and data.
  • In Sweden
  • List of Countries
  • For 7 days
  • Water Temperature
  • Weather Map
  • Weather Widgets
  • user-avatar
    Login

    Hourly Weather Sinorovo

    Today, 16 September, Monday

    Time Temperature Precipitation Wind Pressure Humidity
    00:00 +9°C° 0 mm 3 mps 748 mmHg 77%
    01:00 +9°C° 0 mm 3 mps 747 mmHg 77%
    02:00 +8°C° 0 mm 4 mps 747 mmHg 76%
    03:00 +8°C° 0 mm 5 mps 746 mmHg 76%
    04:00 +8°C° 0.5 mm 5 mps 746 mmHg 80%
    05:00 +8°C° 0.5 mm 5 mps 745 mmHg 84%
    06:00 +8°C° 0.5 mm 6 mps 745 mmHg 88%
    07:00 +8°C° 0.5 mm 6 mps 744 mmHg 88%
    08:00 +8°C° 0.5 mm 6 mps 743 mmHg 87%
    09:00 +8°C° 0.5 mm 6 mps 743 mmHg 86%
    10:00 +9°C° 0.1 mm 6 mps 742 mmHg 84%
    11:00 +10°C° 0.1 mm 6 mps 742 mmHg 82%
    12:00 +10°C° 0.1 mm 6 mps 741 mmHg 80%
    13:00 +11°C° 0 mm 6 mps 741 mmHg 79%
    14:00 +12°C° 0 mm 5 mps 740 mmHg 78%
    15:00 +12°C° 0 mm 5 mps 740 mmHg 76%
    16:00 +12°C° 0.1 mm 5 mps 740 mmHg 78%
    17:00 +10°C° 0.1 mm 5 mps 740 mmHg 80%
    18:00 +11°C° 0.1 mm 4 mps 740 mmHg 82%
    19:00 +10°C° 0 mm 5 mps 740 mmHg 83%
    20:00 +10°C° 0 mm 5 mps 740 mmHg 84%
    21:00 +10°C° 0 mm 5 mps 740 mmHg 84%
    22:00 +9°C° 0 mm 5 mps 740 mmHg 86%
    23:00 +10°C° 0 mm 4 mps 740 mmHg 89%

    Tomorrow, 17 September, Tuesday

    Time Temperature Precipitation Wind Pressure Humidity
    00:00 +10°C° 0 mm 4 mps 740 mmHg 91%
    01:00 +8°C° 0 mm 4 mps 740 mmHg 92%
    02:00 +8°C° 0 mm 4 mps 740 mmHg 92%
    03:00 +8°C° 0 mm 4 mps 740 mmHg 93%
    04:00 +8°C° 0 mm 4 mps 740 mmHg 93%
    05:00 +8°C° 0 mm 4 mps 740 mmHg 93%
    06:00 +7°C° 0 mm 4 mps 740 mmHg 92%
    07:00 +9°C° 0 mm 5 mps 739 mmHg 86%
    08:00 +10°C° 0 mm 5 mps 739 mmHg 79%
    09:00 +11°C° 0 mm 6 mps 739 mmHg 73%
    10:00 +13°C° 0.1 mm 6 mps 739 mmHg 68%
    11:00 +14°C° 0.1 mm 6 mps 739 mmHg 63%
    12:00 +15°C° 0.1 mm 7 mps 739 mmHg 58%
    13:00 +14°C° 0.1 mm 7 mps 739 mmHg 57%
    14:00 +14°C° 0.1 mm 7 mps 739 mmHg 57%
    15:00 +14°C° 0.1 mm 7 mps 739 mmHg 56%
    16:00 +13°C° 0 mm 6 mps 739 mmHg 59%
    17:00 +12°C° 0 mm 5 mps 739 mmHg 62%
    18:00 +11°C° 0 mm 4 mps 739 mmHg 65%
    19:00 +10°C° 0 mm 4 mps 739 mmHg 67%
    20:00 +10°C° 0 mm 3 mps 739 mmHg 70%
    21:00 +9°C° 0 mm 3 mps 740 mmHg 73%
    22:00 +8°C° 0 mm 3 mps 740 mmHg 74%
    23:00 +8°C° 0 mm 3 mps 740 mmHg 74%

    Day after tomorrow, 18 September, Wednesday

    Time Temperature Precipitation Wind Pressure Humidity
    00:00 +8°C° 0 mm 3 mps 740 mmHg 75%
    01:00 +8°C° 0 mm 3 mps 740 mmHg 76%
    02:00 +7°C° 0 mm 3 mps 740 mmHg 77%
    03:00 +7°C° 0 mm 3 mps 740 mmHg 79%
    04:00 +7°C° 0 mm 3 mps 740 mmHg 80%
    05:00 +7°C° 0 mm 3 mps 740 mmHg 80%
    06:00 +8°C° 0 mm 3 mps 740 mmHg 81%
    07:00 +9°C° 0.1 mm 3 mps 740 mmHg 78%
    08:00 +10°C° 0.1 mm 4 mps 740 mmHg 75%
    09:00 +10°C° 0.1 mm 5 mps 739 mmHg 73%
    10:00 +12°C° 0.2 mm 5 mps 739 mmHg 71%
    11:00 +12°C° 0.2 mm 4 mps 739 mmHg 69%
    12:00 +12°C° 0.2 mm 4 mps 739 mmHg 68%
    13:00 +12°C° 0.3 mm 4 mps 739 mmHg 67%
    14:00 +13°C° 0.3 mm 4 mps 739 mmHg 67%
    15:00 +13°C° 0.3 mm 4 mps 738 mmHg 67%
    16:00 +12°C° 0.2 mm 3 mps 738 mmHg 71%
    17:00 +11°C° 0.2 mm 3 mps 738 mmHg 75%
    18:00 +10°C° 0.2 mm 2 mps 737 mmHg 79%
    19:00 +10°C° 0.2 mm 2 mps 737 mmHg 81%
    20:00 +11°C° 0.2 mm 1 mps 737 mmHg 82%
    21:00 +10°C° 0.2 mm 1 mps 736 mmHg 84%
    22:00 +10°C° 0.2 mm 1 mps 736 mmHg 86%
    23:00 +10°C° 0.2 mm 1 mps 735 mmHg 89%

    19 September, Thursday

    Time Temperature Precipitation Wind Pressure Humidity
    00:00 +10°C° 0.2 mm 1 mps 734 mmHg 91%
    01:00 +10°C° 0.7 mm 1 mps 734 mmHg 92%
    02:00 +9°C° 0.7 mm 2 mps 734 mmHg 93%
    03:00 +8°C° 0.7 mm 2 mps 734 mmHg 93%
    04:00 +8°C° 1.5 mm 3 mps 734 mmHg 93%
    05:00 +7°C° 1.5 mm 4 mps 735 mmHg 93%
    06:00 +7°C° 1.5 mm 4 mps 735 mmHg 94%
    07:00 +8°C° 0.9 mm 5 mps 736 mmHg 91%
    08:00 +8°C° 0.9 mm 5 mps 737 mmHg 89%
    09:00 +8°C° 0.9 mm 5 mps 738 mmHg 87%
    10:00 +9°C° 0.3 mm 5 mps 739 mmHg 85%
    11:00 +9°C° 0.3 mm 6 mps 740 mmHg 83%
    12:00 +9°C° 0.3 mm 6 mps 741 mmHg 81%
    13:00 +9°C° 0.4 mm 6 mps 742 mmHg 80%
    14:00 +9°C° 0.4 mm 6 mps 742 mmHg 80%
    15:00 +9°C° 0.4 mm 6 mps 743 mmHg 79%
    16:00 +8°C° 0.3 mm 5 mps 744 mmHg 82%
    17:00 +8°C° 0.3 mm 4 mps 744 mmHg 84%
    18:00 +8°C° 0.3 mm 3 mps 745 mmHg 86%
    19:00 +7°C° 0 mm 3 mps 745 mmHg 88%
    20:00 +6°C° 0 mm 2 mps 746 mmHg 89%
    21:00 +6°C° 0 mm 2 mps 746 mmHg 91%
    22:00 +5°C° 0 mm 2 mps 746 mmHg 91%
    23:00 +5°C° 0 mm 2 mps 747 mmHg 91%

    20 September, Friday

    Time Temperature Precipitation Wind Pressure Humidity
    00:00 +4°C° 0 mm 2 mps 747 mmHg 91%
    01:00 +4°C° 0 mm 2 mps 747 mmHg 90%
    02:00 +3°C° 0 mm 2 mps 747 mmHg 90%
    03:00 +4°C° 0 mm 1 mps 747 mmHg 90%
    04:00 +4°C° 0 mm 1 mps 747 mmHg 90%
    05:00 +4°C° 0 mm 1 mps 747 mmHg 91%
    06:00 +4°C° 0 mm 1 mps 747 mmHg 91%
    07:00 +6°C° 0 mm 1 mps 747 mmHg 86%
    08:00 +7°C° 0 mm 1 mps 748 mmHg 82%
    09:00 +8°C° 0 mm 1 mps 748 mmHg 77%
    10:00 +8°C° 0.1 mm 1 mps 748 mmHg 78%
    11:00 +8°C° 0.1 mm 1 mps 748 mmHg 80%
    12:00 +7°C° 0.1 mm 2 mps 748 mmHg 81%
    13:00 +7°C° 0 mm 2 mps 748 mmHg 81%
    14:00 +8°C° 0 mm 1 mps 747 mmHg 81%
    15:00 +9°C° 0 mm 1 mps 747 mmHg 80%
    16:00 +8°C° 0 mm 1 mps 747 mmHg 82%
    17:00 +8°C° 0 mm 1 mps 747 mmHg 83%
    18:00 +7°C° 0 mm 1 mps 748 mmHg 85%
    19:00 +7°C° 0 mm 1 mps 748 mmHg 85%
    20:00 +6°C° 0 mm 1 mps 748 mmHg 85%
    21:00 +5°C° 0 mm 2 mps 748 mmHg 84%
    22:00 +5°C° 0 mm 1 mps 748 mmHg 85%
    23:00 +4°C° 0 mm 1 mps 748 mmHg 85%

    21 September, Saturday

    Time Temperature Precipitation Wind Pressure Humidity
    00:00 +4°C° 0 mm 1 mps 748 mmHg 85%
    01:00 +3°C° 0 mm 1 mps 748 mmHg 85%
    02:00 +3°C° 0 mm 1 mps 749 mmHg 85%
    03:00 +3°C° 0 mm 1 mps 749 mmHg 85%
    04:00 +3°C° 0 mm 1 mps 749 mmHg 86%
    05:00 +2°C° 0 mm 1 mps 749 mmHg 87%
    06:00 +2°C° 0 mm 1 mps 749 mmHg 88%
    07:00 +4°C° 0 mm 1 mps 749 mmHg 83%
    08:00 +5°C° 0 mm 2 mps 749 mmHg 78%
    09:00 +6°C° 0 mm 2 mps 749 mmHg 72%
    10:00 +7°C° 0 mm 2 mps 749 mmHg 66%
    11:00 +8°C° 0 mm 3 mps 749 mmHg 60%
    12:00 +9°C° 0 mm 3 mps 749 mmHg 54%
    13:00 +9°C° 0 mm 3 mps 749 mmHg 52%
    14:00 +9°C° 0 mm 3 mps 749 mmHg 50%
    15:00 +10°C° 0 mm 3 mps 749 mmHg 47%
    16:00 +8°C° 0 mm 3 mps 749 mmHg 52%
    17:00 +7°C° 0 mm 2 mps 749 mmHg 57%
    18:00 +6°C° 0 mm 2 mps 749 mmHg 62%
    19:00 +5°C° 0 mm 2 mps 749 mmHg 66%
    20:00 +4°C° 0 mm 2 mps 750 mmHg 69%
    21:00 +3°C° 0 mm 2 mps 750 mmHg 72%
    22:00 +3°C° 0 mm 2 mps 750 mmHg 75%
    23:00 +2°C° 0 mm 2 mps 750 mmHg 78%
    Show more